�������r�C�����j�^�v���󋵏��
Date,Time,5�C6���@���p�r�C��,����,����(m/s)
2023/02/05,00:00,3.9,�k�k��,6.1
2023/02/05,00:10,3.9,�k��,6.0
2023/02/05,00:20,3.9,�k��,7.0
2023/02/05,00:30,3.8,�k�k��,6.8
2023/02/05,00:40,3.8,�k�k��,6.1
2023/02/05,00:50,3.8,�k��,7.3
2023/02/05,01:00,3.9,�k��,8.9
2023/02/05,01:10,4.0,�k��,8.4
2023/02/05,01:20,4.0,�k�k��,8.4
2023/02/05,01:30,4.0,�k�k��,8.0
2023/02/05,01:40,3.9,�k��,7.6
2023/02/05,01:50,4.0,�k��,7.5
2023/02/05,02:00,3.7,�k��,8.4
2023/02/05,02:10,3.8,�k��,8.0
2023/02/05,02:20,4.0,�k�k��,7.4
2023/02/05,02:30,4.0,�k�k��,7.3
2023/02/05,02:40,3.9,�k�k��,7.9
2023/02/05,02:50,4.0,�k�k��,7.2
2023/02/05,03:00,3.7,�k�k��,6.7
2023/02/05,03:10,3.8,�k�k��,6.3
2023/02/05,03:20,4.0,�k�k��,5.7
2023/02/05,03:30,3.8,�k�k��,5.3
2023/02/05,03:40,4.0,�k�k��,5.4
2023/02/05,03:50,4.0,�k�k��,5.5
2023/02/05,04:00,3.9,�k,6.0
2023/02/05,04:10,3.8,�k,4.9
2023/02/05,04:20,3.9,�k,4.8
2023/02/05,04:30,4.0,�k,4.1
2023/02/05,04:40,3.9,�k�k��,3.4
2023/02/05,04:50,4.0,�k,2.6
2023/02/05,05:00,3.8,�k�k��,2.3
2023/02/05,05:10,4.1,�k�k��,1.7
2023/02/05,05:20,3.7,�k�k��,1.2
2023/02/05,05:30,3.8,�k�k��,1.2
2023/02/05,05:40,3.8,�k�k��,0.9
2023/02/05,05:50,3.9,�k��,1.2
2023/02/05,06:00,3.9,�k��,1.5
2023/02/05,06:10,3.8,�k�k��,3.7
2023/02/05,06:20,4.0,�k�k��,3.7
2023/02/05,06:30,3.8,�k�k��,3.6
2023/02/05,06:40,3.7,�k�k��,3.6
2023/02/05,06:50,4.0,�k�k��,3.6
2023/02/05,07:00,4.0,�k��,4.0
2023/02/05,07:10,3.9,�k�k��,3.8
2023/02/05,07:20,3.9,�k�k��,3.7
2023/02/05,07:30,3.8,�k��,4.1
2023/02/05,07:40,3.8,�k��,4.2
2023/02/05,07:50,4.1,�k��,4.3
2023/02/05,08:00,3.7,�k��,4.6
2023/02/05,08:10,3.9,���k��,5.5
2023/02/05,08:20,3.8,�k��,7.3
2023/02/05,08:30,4.0,�k��,6.5
2023/02/05,08:40,3.8,�k��,7.0
2023/02/05,08:50,3.9,�k��,6.5
2023/02/05,09:00,3.8,�k��,5.7
2023/02/05,09:10,3.8,�k��,3.4
2023/02/05,09:20,3.8,�k,3.2
2023/02/05,09:30,3.9,�k�k��,4.6
2023/02/05,09:40,3.9,�k�k��,4.1
2023/02/05,09:50,4.0,�k��,3.5
2023/02/05,10:00,3.9,�k�k��,2.0
2023/02/05,10:10,4.0,�k��,1.9
2023/02/05,10:20,3.8,�k��,2.3
2023/02/05,10:30,3.9,�k�k��,3.0
2023/02/05,10:40,3.9,�k,2.0
2023/02/05,10:50,3.9,�k�k��,2.0
2023/02/05,11:00,3.8,�k��,2.8
2023/02/05,11:10,3.9,�k��,2.8
2023/02/05,11:20,3.7,�k��,3.1
2023/02/05,11:30,3.9,��,2.0
2023/02/05,11:40,3.9,-,CALM
2023/02/05,11:50,3.8,���쐼,8.0
2023/02/05,12:00,4.1,��,8.2
2023/02/05,12:10,3.9,���쐼,7.5
2023/02/05,12:20,3.9,��,6.1
2023/02/05,12:30,4.0,���쐼,7.0
2023/02/05,12:40,3.8,��,7.6
2023/02/05,12:50,3.9,��,9.9
2023/02/05,13:00,4.1,��,9.2
2023/02/05,13:10,3.8,��,11.0
2023/02/05,13:20,3.9,��,9.6
2023/02/05,13:30,3.8,���k��,8.5
2023/02/05,13:40,4.0,���k��,6.0
2023/02/05,13:50,3.9,���k��,7.6
2023/02/05,14:00,3.9,�k��,7.8
2023/02/05,14:10,4.0,���k��,4.8
2023/02/05,14:20,3.9,���k��,5.0
2023/02/05,14:30,3.7,���k��,6.0
2023/02/05,14:40,3.9,��,8.8
2023/02/05,14:50,3.8,��,7.4
2023/02/05,15:00,3.8,��,6.2
2023/02/05,15:10,3.9,��,4.5
2023/02/05,15:20,3.7,���k��,5.8
2023/02/05,15:30,3.9,���k��,5.1
2023/02/05,15:40,3.9,���k��,6.3
2023/02/05,15:50,3.9,���k��,4.7
2023/02/05,16:00,4.0,�k��,4.6
2023/02/05,16:10,4.0,�k��,3.5
2023/02/05,16:20,4.0,�k��,2.6
2023/02/05,16:30,4.0,�k�k��,4.4
2023/02/05,16:40,4.1,�k�k��,3.3
2023/02/05,16:50,3.8,�k��,2.9
2023/02/05,17:00,3.8,��,1.9
2023/02/05,17:10,3.8,�쐼,2.0
2023/02/05,17:20,3.9,�쐼,2.2
2023/02/05,17:30,3.8,���쐼,5.5
2023/02/05,17:40,4.0,���쐼,5.1
2023/02/05,17:50,3.8,��,4.6
2023/02/05,18:00,4.1,��,3.3
2023/02/05,18:10,3.9,��,2.0
2023/02/05,18:20,3.8,���k��,2.2
2023/02/05,18:30,3.9,���k��,2.5
2023/02/05,18:40,3.5,��,1.8
2023/02/05,18:50,4.0,��,1.7
2023/02/05,19:00,3.9,���쐼,2.0
2023/02/05,19:10,3.9,���쐼,2.3
2023/02/05,19:20,4.0,��,3.9
2023/02/05,19:30,3.9,��,4.6
2023/02/05,19:40,3.9,��,3.6
2023/02/05,19:50,4.0,��,4.1
2023/02/05,20:00,3.9,���쐼,3.6
2023/02/05,20:10,3.8,���쐼,3.3
2023/02/05,20:20,3.9,��,3.5
2023/02/05,20:30,4.1,��,3.9
2023/02/05,20:40,4.0,��,3.7
2023/02/05,20:50,3.8,��,3.6
2023/02/05,21:00,4.0,��,4.5
2023/02/05,21:10,3.9,��,3.9
2023/02/05,21:20,4.0,��,4.3
2023/02/05,21:30,3.9,��,4.2
2023/02/05,21:40,3.9,��,4.3
2023/02/05,21:50,3.8,��,4.2
2023/02/05,22:00,3.8,��,4.2
2023/02/05,22:10,3.9,��,4.1
2023/02/05,22:20,3.9,��,3.8
2023/02/05,22:30,4.1,��,4.4
2023/02/05,22:40,3.9,��,4.2
2023/02/05,22:50,3.9,���k��,4.1
2023/02/05,23:00,4.0,���k��,4.6
2023/02/05,23:10,3.7,���k��,5.0
2023/02/05,23:20,3.9,���k��,4.3
2023/02/05,23:30,3.7,��,3.7
2023/02/05,23:40,3.9,���k��,4.3
2023/02/05,23:50,4.0,���k��,5.6
